Date String (YYYY-MM-DD hh:mm:ss) UTC,Instrument flags,Ambient pressure (hPa),Sample flow (lpm),Bypass flow (lpm),Sample temperature (°C),Ambient temperature (°C),ASC tube jacket temperature (°C),LED temperature (°C),Box temperature (°C),Sample RH (%),Span deviation,Mass concentration (μg/m³),Mass concentration (μg/m³),Mass concentration (μg/m³)
DateTimeUTC,F1_M11,P_M11,Q1_M11,Q2_M11,T1_M11,T2_M11,T3_M11,T4_M11,T5_M11,U1_M11,ZSPAN_M11,X0_M11,X2_M11,X1_M11
2022-07-05 15:00:00,,0826.9,5.00,0.00,29.8,28.8,00.0,38.5,31.8,26.2,0000.0,0008.88,0003.93,0003.34
2022-07-05 15:01:00,,0827.0,5.00,0.00,29.9,28.8,00.0,38.6,31.8,25.9,0000.0,0009.73,0003.97,0003.34
2022-07-05 15:02:00,,0827.1,4.99,0.00,29.9,28.8,00.0,38.6,31.8,25.6,0000.0,0010.21,0003.96,0003.34
2022-07-05 15:03:00,,0827.1,5.00,0.00,29.9,28.3,00.0,38.5,31.8,25.7,0000.0,0010.42,0003.96,0003.34
2022-07-05 15:04:00,,0827.2,5.00,0.00,29.8,27.6,00.0,38.5,31.6,25.4,0000.0,0010.37,0003.95,0003.34
2022-07-05 15:05:00,,0826.9,5.00,0.00,29.8,27.3,00.0,38.5,31.5,25.7,0000.0,0010.73,0003.96,0003.35
2022-07-05 15:06:00,,0827.0,5.00,0.00,29.7,27.4,00.0,38.5,31.4,26.0,0000.0,0010.94,0003.98,0003.36
2022-07-05 15:07:00,,0826.9,4.99,0.00,29.6,27.5,00.0,38.4,31.4,26.5,0000.0,0011.05,0003.97,0003.37
2022-07-05 15:08:00,,0826.9,5.00,0.00,29.6,27.6,00.0,38.4,31.4,26.6,0000.0,0011.27,0003.96,0003.37
2022-07-05 15:09:00,,0827.1,5.01,0.00,29.6,27.8,00.0,38.4,31.4,26.5,0000.0,0011.29,0003.94,0003.38
2022-07-05 15:10:00,,0826.9,5.00,0.00,29.6,27.9,00.0,38.4,31.4,26.5,0000.0,0010.83,0003.93,0003.38
2022-07-05 15:11:00,,0827.0,5.01,0.00,29.6,28.1,00.0,38.4,31.5,26.5,0000.0,0011.37,0003.95,0003.39
2022-07-05 15:12:00,,0826.9,4.99,0.00,29.6,28.2,00.0,38.4,31.5,26.5,0000.0,0011.10,0003.91,0003.40
2022-07-05 15:13:00,,0826.9,5.00,0.00,29.6,28.3,00.0,38.4,31.5,26.6,0000.0,0010.60,0003.93,0003.42
2022-07-05 15:14:00,,0826.9,5.00,0.00,29.7,28.4,00.0,38.4,31.6,26.6,0000.0,0010.31,0003.91,0003.43
2022-07-05 15:15:00,,0826.9,5.00,0.00,29.7,28.5,00.0,38.4,31.6,26.9,0000.0,0010.15,0003.92,0003.44
2022-07-05 15:16:00,,0827.1,5.00,0.00,29.7,28.6,00.0,38.5,31.7,27.2,0000.0,0010.00,0003.94,0003.45
2022-07-05 15:17:00,,0826.9,5.00,0.00,29.8,28.7,00.0,38.5,31.7,27.3,0000.0,0009.71,0003.93,0003.45
2022-07-05 15:18:00,,0826.9,5.01,0.00,29.8,28.8,00.0,38.5,31.7,27.3,0000.0,0009.84,0003.95,0003.45
2022-07-05 15:19:00,,0826.9,5.01,0.00,29.8,28.8,00.0,38.5,31.7,27.1,0000.0,0010.04,0003.98,0003.45
2022-07-05 15:20:00,,0826.9,5.00,0.00,29.9,28.7,00.0,38.5,31.8,26.8,0000.0,0009.96,0004.00,0003.44
2022-07-05 15:21:00,,0827.1,5.00,0.00,29.8,28.0,00.0,38.5,31.7,26.8,0000.0,0009.99,0004.01,0003.44
2022-07-05 15:22:00,,0827.0,4.99,0.00,29.8,27.5,00.0,38.4,31.6,27.1,0000.0,0009.50,0004.01,0003.43
2022-07-05 15:23:00,,0826.9,5.00,0.00,29.7,27.4,00.0,38.4,31.5,27.1,0000.0,0009.32,0004.04,0003.42
2022-07-05 15:24:00,,0826.8,5.01,0.00,29.7,27.5,00.0,38.4,31.4,27.1,0000.0,0009.53,0004.04,0003.41
2022-07-05 15:25:00,,0827.1,5.00,0.00,29.6,27.6,00.0,38.4,31.4,27.6,0000.0,0009.57,0004.03,0003.39
2022-07-05 15:26:00,,0826.8,5.00,0.00,29.6,27.8,00.0,38.4,31.4,27.1,0000.0,0009.57,0004.01,0003.38
2022-07-05 15:27:00,,0827.0,5.00,0.00,29.6,27.9,00.0,38.4,31.4,27.4,0000.0,0009.47,0003.99,0003.36
2022-07-05 15:28:00,,0826.9,4.99,0.00,29.6,28.1,00.0,38.4,31.5,27.1,0000.0,0009.41,0003.99,0003.36
2022-07-05 15:29:00,,0826.9,5.00,0.00,29.6,28.2,00.0,38.4,31.5,27.2,0000.0,0009.24,0003.99,0003.37
2022-07-05 15:30:00,,0826.8,5.00,0.00,29.7,28.3,00.0,38.4,31.6,27.2,0000.0,0008.57,0004.02,0003.37
2022-07-05 15:31:00,,0827.0,4.99,0.00,29.7,28.4,00.0,38.4,31.6,27.1,0000.0,0008.34,0003.98,0003.37
2022-07-05 15:32:00,,0826.9,5.00,0.00,29.7,28.5,00.0,38.4,31.6,27.1,0000.0,0008.47,0003.98,0003.37
2022-07-05 15:33:00,,0827.1,5.00,0.00,29.7,28.6,00.0,38.5,31.7,26.4,0000.0,0009.17,0003.97,0003.38
2022-07-05 15:34:00,,0827.1,4.99,0.00,29.8,28.7,00.0,38.5,31.7,25.0,0000.0,0008.92,0003.95,0003.38
2022-07-05 15:35:00,,0827.1,5.00,0.00,29.8,28.6,00.0,38.5,31.7,24.8,0000.0,0008.61,0003.92,0003.37
2022-07-05 15:36:00,,0826.9,5.01,0.00,29.8,27.9,00.0,38.4,31.6,25.1,0000.0,0008.73,0003.92,0003.36
2022-07-05 15:37:00,,0826.8,5.00,0.00,29.7,27.5,00.0,38.4,31.5,25.0,0000.0,0008.80,0003.91,0003.36
2022-07-05 15:38:00,,0826.8,5.01,0.00,29.7,27.5,00.0,38.4,31.4,25.3,0000.0,0009.27,0003.91,0003.36
2022-07-05 15:39:00,,0826.8,5.00,0.00,29.6,27.6,00.0,38.4,31.4,26.5,0000.0,0009.58,0003.91,0003.37
2022-07-05 15:40:00,,0826.8,5.01,0.00,29.6,27.7,00.0,38.4,31.4,27.1,0000.0,0009.67,0003.95,0003.39
2022-07-05 15:41:00,,0826.8,5.00,0.00,29.6,27.8,00.0,38.4,31.4,27.9,0000.0,0009.64,0003.92,0003.41
2022-07-05 15:42:00,,0826.7,5.00,0.00,29.6,28.0,00.0,38.4,31.4,28.1,0000.0,0010.23,0003.96,0003.44
2022-07-05 15:43:00,,0826.8,5.00,0.00,29.6,28.1,00.0,38.4,31.5,28.3,0000.0,0010.29,0003.99,0003.47
2022-07-05 15:44:00,,0826.8,4.99,0.00,29.6,28.3,00.0,38.4,31.6,28.5,0000.0,0009.61,0004.04,0003.51
2022-07-05 15:45:00,,0826.8,5.00,0.00,29.7,28.4,00.0,38.4,31.6,28.4,0000.0,0009.99,0004.08,0003.56
2022-07-05 15:46:00,,0826.8,5.00,0.00,29.7,28.5,00.0,38.4,31.6,28.5,0000.0,0010.40,0004.18,0003.63
2022-07-05 15:47:00,,0826.8,5.01,0.00,29.7,28.6,00.0,38.4,31.7,28.2,0000.0,0010.40,0004.26,0003.70
2022-07-05 15:48:00,,0826.9,4.99,0.00,29.8,28.7,00.0,38.4,31.7,27.9,0000.0,0010.34,0004.33,0003.76
2022-07-05 15:49:00,,0826.8,5.00,0.00,29.8,28.5,00.0,38.4,31.7,27.7,0000.0,0010.19,0004.42,0003.82
2022-07-05 15:50:00,,0826.8,5.00,0.00,29.8,27.8,00.0,38.4,31.6,27.6,0000.0,0010.44,0004.50,0003.87
2022-07-05 15:51:00,,0826.9,5.01,0.00,29.7,27.4,00.0,38.4,31.5,27.7,0000.0,0010.51,0004.52,0003.90
2022-07-05 15:52:00,,0827.0,4.99,0.00,29.7,27.3,00.0,38.4,31.4,28.0,0000.0,0010.67,0004.58,0003.94
2022-07-05 15:53:00,,0827.1,4.99,0.00,29.6,27.5,00.0,38.3,31.3,28.2,0000.0,0009.88,0004.60,0003.96
2022-07-05 15:54:00,,0827.1,5.00,0.00,29.6,27.6,00.0,38.3,31.4,28.0,0000.0,0009.78,0004.63,0004.00
2022-07-05 15:55:00,,0826.8,5.00,0.00,29.6,27.8,00.0,38.3,31.4,27.7,0000.0,0010.07,0004.66,0004.03
2022-07-05 15:56:00,,0826.9,4.98,0.00,29.6,27.9,00.0,38.3,31.4,28.1,0000.0,0009.85,0004.70,0004.05
2022-07-05 15:57:00,,0827.1,5.00,0.00,29.6,28.1,00.0,38.3,31.4,28.2,0000.0,0009.59,0004.70,0004.07
2022-07-05 15:58:00,,0827.0,5.01,0.00,29.6,28.2,00.0,38.3,31.5,28.0,0000.0,0009.91,0004.72,0004.09
2022-07-05 15:59:00,,0826.9,5.00,0.00,29.6,28.4,00.0,38.4,31.5,28.2,0000.0,0010.27,0004.77,0004.11
